EW9645 Weather Reports


Display with metric or nautical units.
time (UTC)temp
F
wind
direction
speed
MPH
gust
MPH
rain 1hr
in
rain 24hr
in
rain mn
in
humidity
%
barometer
mb
20191119033059 41 117 1.0 4.0 0.00 0.06 0.01 96 999.6
20191119031516 41 121 1.0 6.0 0.01 0.06 0.01 95 999.7
20191119030054 41 197 2.0 6.0 0.01 0.06 0.01 95 999.6
20191119024530 41 126 2.0 10.0 0.01 0.06 0.01 95 999.6
20191119023048 41 270 2.0 7.0 0.01 0.06 0.01 95 999.8
20191119021525 41 161 2.0 7.0 0.00 0.06 0.00 94 1000.0
20191119020128 41 171 2.0 5.0 0.00 0.06 0.00 94 1000.2
20191119014542 41 148 2.0 8.0 0.00 0.06 0.00 93 1000.3
20191119013108 41 180 2.0 5.0 0.00 0.06 0.00 92 1000.3
20191119011544 42 217 2.0 10.0 0.00 0.06 0.00 91 1000.4
20191119010016 42 152 2.0 11.0 0.00 0.06 0.00 91 1000.4
20191119004546 42 158 2.0 8.0 0.00 0.06 0.00 91 1000.5
20191119003017 42 105 2.0 11.0 0.00 0.06 0.00 91 1000.6
20191119001515 42 146 3.0 10.0 0.00 0.06 0.00 91 1000.7
20191119000046 42 159 2.0 13.0 0.00 0.06 0.00 91 1000.7
20191118234538 42 238 2.0 7.0 0.00 0.06 0.00 91 1000.9
20191118233039 42 132 1.0 9.0 0.00 0.06 0.00 91 1001.1
20191118231511 42 159 2.0 9.0 0.00 0.06 0.00 91 1001.3
20191118230105 41 191 1.0 9.0 0.00 0.06 0.00 92 1001.3
20191118224534 41 192 2.0 6.0 0.00 0.06 0.06 92 1001.3
20191118223027 41 199 2.0 9.0 0.00 0.06 0.06 92 1001.3
20191118221535 41 153 2.0 6.0 0.00 0.06 0.06 93 1001.2
20191118220030 41 185 2.0 14.0 0.00 0.06 0.06 93 1001.3
20191118214531 41 136 2.0 7.0 0.00 0.06 0.06 94 1001.5
20191118213044 41 161 2.0 9.0 0.00 0.06 0.06 94 1001.5
20191118211526 41 153 2.0 9.0 0.00 0.06 0.06 94 1001.6
20191118210019 41 150 2.0 8.0 0.00 0.06 0.06 95 1001.6
20191118204525 41 202 2.0 8.0 0.00 0.06 0.06 95 1001.7
20191118201606 41 180 1.0 8.0 0.00 0.06 0.06 96 1001.7
20191118200110 41 223 2.0 8.0 0.00 0.06 0.06 96 1001.9
20191118194549 41 159 1.0 8.0 0.01 0.06 0.06 96 1002.0
20191118193041 42 223 1.0 7.0 0.01 0.06 0.06 96 1001.9
20191118191537 42 155 1.0 10.0 0.02 0.06 0.06 96 1001.9
20191118190046 42 151 3.0 8.0 0.03 0.06 0.06 96 1001.8
20191118184538 42 150 2.0 10.0 0.03 0.12 0.05 96 1001.8
20191118183039 43 177 1.0 7.0 0.03 0.12 0.05 96 1001.6
20191118181558 43 208 1.0 4.0 0.02 0.11 0.04 96 1001.7
20191118180046 43 141 1.0 7.0 0.01 0.09 0.02 96 1001.8
20191118174550 43 175 1.0 6.0 0.00 0.09 0.02 96 1001.7
20191118173023 43 173 3.0 7.0 0.01 0.09 0.02 96 1001.8
20191118171545 43 234 2.0 9.0 0.01 0.09 0.02 96 1001.7
20191118170042 44 238 1.0 6.0 0.02 0.09 0.02 96 1001.7
20191118164523 44 155 1.0 7.0 0.02 0.09 0.02 96 1001.6
20191118163038 44 132 1.0 6.0 0.01 0.08 0.01 96 1001.7
20191118161530 44 171 1.0 5.0 0.01 0.08 0.01 96 1001.7
20191118160025 44 150 0.0 1.0 0.00 0.07 0.00 96 1001.7
20191118154525 45 200 2.0 6.0 0.00 0.07 0.00 96 1001.5
20191118153026 45 173 0.0 3.0 0.00 0.07 0.00 96 1001.4
20191118151557 45 205 0.0 3.0 0.00 0.07 0.00 96 1001.4
20191118150050 45 203 0.0 4.0 0.00 0.07 0.00 96 1001.5
20191118144535 45 221 0.0 7.0 0.00 0.07 0.00 96 1001.6
20191118143058 45 197 0.0 4.0 0.00 0.07 0.00 96 1001.6
20191118141522 45 179 0.0 3.0 0.00 0.07 0.00 96 1001.5
20191118140037 45 182 0.0 3.0 0.00 0.07 0.00 96 1001.6
20191118134524 46 202 0.0 4.0 0.00 0.07 0.00 96 1001.7
20191118133102 46 212 0.0 1.0 0.00 0.07 0.00 96 1001.5
20191118131525 46 208 0.0 0.0 0.00 0.07 0.00 96 1001.4
20191118130052 46 228 0.0 0.0 0.00 0.07 0.00 96 1001.3
20191118124554 46 240 0.0 0.0 0.00 0.07 0.00 96 1001.3
20191118123045 46 138 0.0 0.0 0.00 0.07 0.00 96 1001.4
20191118121533 46 136 0.0 1.0 0.00 0.07 0.00 96 1001.3
20191118120021 46 136 0.0 0.0 0.00 0.07 0.00 96 1001.3
20191118114532 46 136 0.0 1.0 0.00 0.07 0.00 96 1001.4
20191118113038 46 136 0.0 2.0 0.00 0.07 0.00 96 1001.6
20191118111527 46 136 0.0 0.0 0.00 0.07 0.00 96 1001.5
20191118110028 46 136 0.0 0.0 0.00 0.07 0.00 96 1001.5
20191118104523 46 136 0.0 0.0 0.00 0.08 0.00 96 1001.8
20191118103042 46 136 0.0 0.0 0.00 0.08 0.00 96 1001.6
20191118101517 46 136 0.0 1.0 0.00 0.08 0.00 96 1001.8
20191118100038 46 136 0.0 0.0 0.00 0.08 0.00 96 1001.9
20191118094524 46 136 0.0 0.0 0.00 0.08 0.00 96 1002.0
20191118093024 46 136 0.0 2.0 0.00 0.08 0.00 96 1002.3
20191118091510 46 136 0.0 1.0 0.00 0.08 0.00 96 1002.3
20191118090022 46 136 0.0 3.0 0.00 0.08 0.00 96 1002.4
20191118084534 46 121 0.0 4.0 0.00 0.08 0.00 96 1002.3
20191118083011 46 105 0.0 3.0 0.00 0.08 0.00 96 1002.2
20191118081510 46 103 0.0 1.0 0.00 0.08 0.00 96 1002.1
20191118080105 46 103 0.0 1.0 0.00 0.08 0.00 96 1002.1
20191118074517 46 103 0.0 0.0 0.00 0.08 0.00 96 1001.9
20191118073044 46 96 0.0 3.0 0.00 0.08 0.00 96 1002.1
20191118071505 46 96 0.0 2.0 0.00 0.08 0.00 96 1002.0
20191118070043 46 96 1.0 3.0 0.00 0.08 0.00 96 1001.9
20191118064523 46 96 0.0 3.0 0.00 0.08 0.00 96 1001.9
20191118063033 46 98 1.0 4.0 0.00 0.08 0.00 96 1001.6
20191118061522 46 98 1.0 3.0 0.00 0.08 0.00 96 1001.6
20191118060005 46 105 1.0 4.0 0.00 0.08 0.00 96 1001.6
20191118054522 46 113 0.0 2.0 0.00 0.08 0.00 96 1001.7
20191118053049 46 105 0.0 6.0 0.00 0.08 0.00 96 1001.6
20191118051504 46 86 0.0 6.0 0.00 0.08 0.00 96 1001.5
20191118050040 46 100 1.0 4.0 0.00 0.08 0.00 96 1001.4
20191118044524 46 22 1.0 3.0 0.00 0.08 0.00 96 1001.2
20191118043024 45 5 0.0 3.0 0.00 0.08 0.00 96 1001.3
20191118041529 45 360 0.0 3.0 0.00 0.08 0.00 95 1001.4
20191118040022 45 13 0.0 2.0 0.00 0.08 0.00 96 1001.8